[[{"header":{"parameterUnit":"m.s-1","parameterCategory":1,"la1":30.2991,"la2":30.254,"lo1":-89.0895,"lo2":-89.0444,"dy":0.0017,"dx":0.0017,"nx":28,"ny":28,"refTime":"2025-07-03T09:00:00:Z","depth":0,"parameterNumber":2,"parameterNumberName":"U-component_of_WINDS"},"data":[0,0,0,0,0,0,0,0,0,0,0,0,0,0,0,0,0,0,0,0,0,0,0,0,0,0,0,0,0,0,0,0,0,0,0,0,0,0,0,0,0,0,0,0,0,0,0,0,0,0,0,0,0,0,0,0,0,0,1.4445,1.4447,0,1.4699,1.4702,1.4705,1.4704,1.4701,1.4697,1.4694,1.4961,1.4971,1.4981,0,0,0,0,0,0,0,0,0,0,0,0,0,1.3964,1.3973,1.4444,1.4448,1.4451,1.4699,1.4702,1.4706,1.4705,1.4701,1.4697,1.4693,1.4958,1.497,1.4982,0,0,0,0,0,0,0,0,0,0,0,0,0,1.4191,1.3976,1.4444,1.448,1.4486,1.4698,1.4702,1.4707,1.4706,1.4701,1.4695,1.4691,1.4954,1.4969,1.4984,1.5179,0,0,1.5031,1.5037,0,0,0,0,0,0,0,0,1.4178,1.4209,1.4471,1.4478,1.4485,1.4665,1.4631,1.4865,1.4707,1.4622,1.4694,1.4688,1.4867,1.4889,1.4948,1.5191,1.5203,1.5032,1.5041,1.5048,1.5052,0,0,0,0,0,0,0,1.4163,1.4198,1.4545,1.4475,1.4483,1.4486,1.4512,1.4675,1.477,1.4629,1.463,1.466,1.487,1.4933,1.4954,1.5207,1.5032,1.5045,1.5055,1.5061,1.5626,1.5632,0,0,0,0,0,0,1.4139,1.4185,1.4537,1.4553,1.4316,1.4498,1.4528,1.4612,1.4768,1.4787,1.4664,1.4659,1.491,1.4936,1.4964,1.5204,1.5048,1.5062,1.5071,1.562,1.5627,1.5634,0,0,0,0,0,0,1.4128,1.417,1.4527,1.4369,1.4415,1.4512,1.4606,1.462,1.4683,1.4794,1.4811,1.4711,1.4907,1.4942,1.5126,1.5213,1.5069,1.5083,1.5613,1.5622,1.563,1.5685,0,0,0,0,0,0,1.4114,1.4166,1.4239,1.4371,1.4423,1.4683,1.4611,1.4628,1.4709,1.4705,1.4843,1.4861,1.4905,1.5103,1.5141,1.5232,1.5095,1.5606,1.5617,1.5628,1.5676,1.5694,1.571,0,0,0,0,0,1.4097,1.4245,1.4243,1.4286,1.4517,1.4688,1.4718,1.4764,1.4716,1.4792,1.4863,1.4857,1.5197,1.5121,1.5164,1.5261,1.5601,1.5614,1.5627,1.5668,1.5691,1.571,0,0,0,0,0,0,1.4123,1.4263,1.4262,1.4457,1.456,1.4687,1.4784,1.4787,1.4907,1.4898,1.4953,1.4984,1.5168,1.5233,1.5146,1.546,1.5393,1.5416,1.541,1.5433,1.545,1.543,1.5108,0,0,0,0,0,1.4151,1.4277,1.4393,1.4554,1.4605,1.4686,1.4762,1.4789,1.4899,1.4943,1.5028,1.5137,1.5269,1.5354,1.5481,1.5685,1.5717,1.5773,1.5791,1.5804,1.5823,1.5938,1.5965,1.5677,1.5676,1.5676,0,0,1.4212,1.4303,1.4379,1.4561,1.4644,1.4775,1.4723,1.4863,1.4961,1.4965,1.5143,1.521,1.5335,1.553,1.562,1.559,1.591,1.5821,1.5831,1.5843,1.5954,1.5981,1.6006,1.5685,1.5684,1.5682,0,0,1.4388,1.4469,1.4612,1.4697,1.4823,1.4876,1.491,1.5038,1.5082,1.5261,1.5267,1.5386,1.5611,1.5701,1.5776,1.5988,1.5987,1.6028,1.6119,1.623,1.6253,1.6274,1.6351,1.6378,1.6047,1.6047,1.6047,0,1.4446,1.4641,1.4686,1.4827,1.4908,1.4917,1.5064,1.5145,1.5307,1.5364,1.5327,1.5611,1.5696,1.5913,1.5965,1.6025,1.6068,1.6013,1.6246,1.6267,1.6287,1.6361,1.639,1.6051,1.6051,1.605,1.605,0,1.4709,1.4844,1.4946,1.51,1.5193,1.5336,1.5405,1.5494,1.5514,1.5571,1.5755,1.5858,1.6006,1.606,1.6081,1.6281,1.6259,1.6234,1.6168,1.6317,1.6388,1.6417,1.6057,1.6056,1.6054,1.6053,0,0,1.4907,1.5086,1.5122,1.5194,1.5335,1.5442,1.5587,1.5731,1.5807,1.5919,1.6044,1.6235,1.6213,1.6298,1.633,1.6427,1.6591,1.6391,1.6395,1.6425,1.682,1.6838,1.687,1.6591,1.6597,1.6601,1.681,0,1.5099,1.5354,1.54,1.5624,1.5752,1.5763,1.589,1.5991,1.605,1.6168,1.6233,1.6368,1.6328,1.638,1.6477,1.655,1.6671,1.6536,1.671,1.6715,1.6678,1.6907,1.6927,1.7118,1.6838,1.6842,1.6846,0,1.5356,1.5473,1.571,1.5836,1.5891,1.6004,1.6141,1.6253,1.637,1.6405,1.6501,1.6522,1.6676,1.6603,1.6818,1.6725,1.6799,1.6846,1.6855,1.6873,1.679,1.6932,1.718,1.7209,1.689,1.6886,1.6883,0,1.5478,1.5696,1.5866,1.5927,1.6077,1.6157,1.6224,1.6335,1.642,1.654,1.6596,1.6734,1.6809,1.6916,1.6975,1.6916,1.7185,1.7117,1.7221,1.722,1.7277,1.7273,1.7541,1.7324,1.7324,1.7323,1.7323,0,1.5687,1.5832,1.5923,1.6028,1.6191,1.6244,1.6405,1.6471,1.6571,1.669,1.6709,1.6821,1.6891,1.7014,1.7061,1.7232,1.7266,1.7301,1.7312,1.73,1.7295,1.7349,1.7337,1.7331,1.7329,1.7328,1.7326,0,1.5851,1.5918,1.6104,1.6232,1.6267,1.6382,1.6492,1.6596,1.6654,1.6806,1.6845,1.6937,1.7083,1.7152,1.7333,1.7365,1.756,1.7562,1.752,1.7524,1.7624,1.7614,1.7937,1.7982,1.7735,1.7737,1.7739,0,1.598,1.6091,1.6231,1.6312,1.638,1.651,1.6596,1.6654,1.6743,1.6886,1.6973,1.7119,1.7239,1.7473,1.7558,1.7697,1.7703,1.7806,1.7724,1.7709,1.7706,1.7698,1.771,1.7821,1.7824,1.7826,1.7827,0,1.6202,1.623,1.6353,1.6488,1.659,1.67,1.6807,1.6873,1.6948,1.7048,1.7197,1.729,1.7475,1.7622,1.7767,1.7838,1.7847,1.7853,1.7884,1.7873,1.7844,1.7862,1.7561,1.7845,1.7843,1.7842,1.7841,1.784,1.6354,1.6454,1.6568,1.6705,1.6792,1.6892,1.6996,1.7068,1.7192,1.7346,1.7374,1.7532,1.7649,1.7845,1.7922,1.8048,1.8025,1.807,1.8082,1.8092,1.8098,1.7824,1.8075,1.8075,1.8074,1.8074,1.8074,0,1.6577,1.6652,1.6777,1.6927,1.7035,1.7032,1.7152,1.7243,1.7382,1.7489,1.7607,1.778,1.7922,1.8019,1.8163,1.8246,1.8254,1.8283,1.8277,1.8294,1.8111,1.8069,1.8274,1.8274,1.8274,1.8274,1.8274,1.8274,1.6706,1.6876,1.6918,1.7133,1.7207,1.7361,1.743,1.7524,1.761,1.7801,1.7919,1.7981,1.8085,1.8238,1.8369,1.8394,1.8447,1.8476,1.8501,1.8328,1.8307,1.8287,1.8248,1.8487,1.8488,1.8674,1.8676,1.8677]},{"header":{"parameterUnit":"m.s-1","parameterCategory":1,"la1":30.2991,"la2":30.254,"lo1":-89.0895,"lo2":-89.0444,"dy":0.0017,"dx":0.0017,"nx":28,"ny":28,"refTime":"2025-07-03T09:00:00:Z","depth":0,"parameterNumber":3,"parameterNumberName":"V-component_of_WINDS"},"data":[0,0,0,0,0,0,0,0,0,0,0,0,0,0,0,0,0,0,0,0,0,0,0,0,0,0,0,0,0,0,0,0,0,0,0,0,0,0,0,0,0,0,0,0,0,0,0,0,0,0,0,0,0,0,0,0,0,0,1.2926,1.2927,0,1.3047,1.3048,1.3049,1.2998,1.2995,1.2992,1.2989,1.3113,1.3119,1.3125,0,0,0,0,0,0,0,0,0,0,0,0,0,1.2647,1.2653,1.2926,1.2927,1.2929,1.3046,1.3048,1.305,1.2998,1.2995,1.2991,1.2988,1.3111,1.3118,1.3126,0,0,0,0,0,0,0,0,0,0,0,0,0,1.2768,1.2654,1.2926,1.2917,1.2918,1.3046,1.3048,1.305,1.2999,1.2995,1.299,1.2986,1.3109,1.3118,1.3127,1.327,0,0,1.3154,1.3158,0,0,0,0,0,0,0,0,1.2761,1.2778,1.2917,1.2918,1.2919,1.3003,1.2995,1.3124,1.3,1.2968,1.2989,1.2984,1.308,1.3091,1.3123,1.3276,1.3281,1.3155,1.316,1.3164,1.3167,0,0,0,0,0,0,0,1.2753,1.2773,1.2974,1.2919,1.292,1.2906,1.2919,1.3019,1.3047,1.2971,1.2967,1.2982,1.308,1.3115,1.3126,1.3283,1.3155,1.3163,1.3168,1.3172,1.3552,1.3556,0,0,0,0,0,0,1.2745,1.2766,1.297,1.2977,1.2828,1.2915,1.2929,1.298,1.3046,1.3052,1.2986,1.2979,1.3102,1.3115,1.313,1.3298,1.3164,1.3173,1.3178,1.3547,1.3553,1.3558,0,0,0,0,0,0,1.2739,1.2764,1.2965,1.2871,1.2895,1.2924,1.2983,1.2985,1.302,1.3057,1.3062,1.3017,1.3099,1.3117,1.3234,1.3301,1.3177,1.3185,1.3542,1.3549,1.3555,1.3637,0,0,0,0,0,0,1.2731,1.2762,1.2818,1.2873,1.2901,1.3068,1.2987,1.299,1.3036,1.3028,1.3088,1.3093,1.3097,1.3221,1.3243,1.3312,1.3192,1.3536,1.3545,1.3553,1.3628,1.3646,1.3661,0,0,0,0,0,1.2722,1.2838,1.2821,1.2846,1.2971,1.3072,1.3088,1.309,1.3042,1.3097,1.312,1.3091,1.3291,1.3233,1.3258,1.333,1.3531,1.3542,1.3553,1.3621,1.3642,1.3661,0,0,0,0,0,0,1.2792,1.2845,1.2827,1.2965,1.3014,1.3064,1.3134,1.3113,1.3178,1.3169,1.3167,1.3181,1.33,1.3327,1.3262,1.3469,1.3403,1.3419,1.3447,1.3468,1.3484,1.3474,1.32,0,0,0,0,0,1.2823,1.2901,1.2943,1.306,1.3086,1.3106,1.315,1.3146,1.3197,1.3218,1.325,1.3301,1.3374,1.3423,1.3493,1.3632,1.3641,1.3693,1.371,1.3723,1.3736,1.3806,1.3828,1.3592,1.3592,1.3592,0,0,1.2889,1.2928,1.2978,1.3075,1.3113,1.3192,1.3124,1.3212,1.3269,1.3232,1.3342,1.3367,1.3423,1.355,1.3608,1.3576,1.3803,1.3736,1.3746,1.3753,1.3819,1.3841,1.3861,1.36,1.3598,1.3597,0,0,1.3049,1.3088,1.3186,1.3225,1.3282,1.3294,1.3317,1.3369,1.3383,1.3494,1.3466,1.3534,1.3662,1.3701,1.3738,1.3906,1.3881,1.3929,1.4014,1.4082,1.41,1.4117,1.4172,1.4193,1.3942,1.3943,1.3943,0,1.3124,1.3242,1.324,1.3329,1.337,1.3338,1.3436,1.3474,1.3551,1.358,1.3543,1.3699,1.3735,1.3868,1.3908,1.3941,1.3964,1.3922,1.4098,1.4114,1.4129,1.4182,1.4204,1.3948,1.3947,1.3947,1.3946,0,1.3329,1.3411,1.3484,1.3557,1.3607,1.3701,1.371,1.3761,1.3752,1.3766,1.3876,1.3918,1.3993,1.4024,1.4018,1.4155,1.4132,1.4097,1.4031,1.4157,1.4207,1.4227,1.3955,1.3954,1.3952,1.3951,0,0,1.3539,1.3606,1.3632,1.3662,1.3721,1.3784,1.3874,1.3946,1.3987,1.4041,1.4113,1.422,1.4185,1.4227,1.4223,1.4284,1.4408,1.424,1.4241,1.4266,1.4556,1.458,1.4604,1.4392,1.4396,1.4399,1.455,0,1.37,1.3857,1.3855,1.4,1.4073,1.404,1.4117,1.416,1.4175,1.4238,1.4254,1.4328,1.4279,1.4303,1.4361,1.4381,1.4466,1.437,1.4456,1.446,1.4441,1.4631,1.4658,1.4799,1.457,1.4573,1.4576,0,1.391,1.3967,1.4118,1.416,1.4191,1.4261,1.4323,1.4385,1.4431,1.4437,1.4481,1.4467,1.4554,1.4486,1.4605,1.454,1.4575,1.4589,1.4594,1.4601,1.4524,1.4639,1.4845,1.4865,1.4607,1.4605,1.4602,0,1.4042,1.4158,1.4262,1.4289,1.4342,1.4391,1.4415,1.4457,1.4499,1.4553,1.4579,1.4644,1.4679,1.4728,1.473,1.4681,1.4849,1.4782,1.4853,1.4853,1.4889,1.4887,1.51,1.4917,1.4916,1.4916,1.4916,0,1.4221,1.4314,1.4321,1.4385,1.4486,1.4482,1.4582,1.4602,1.4638,1.4703,1.468,1.4741,1.4741,1.4803,1.4805,1.49,1.4917,1.4922,1.4921,1.4923,1.4921,1.4944,1.4933,1.4922,1.492,1.4919,1.4918,0,1.4387,1.4396,1.4506,1.4546,1.4557,1.463,1.4663,1.4722,1.4733,1.4815,1.4834,1.4851,1.4921,1.4928,1.5012,1.5012,1.5126,1.5116,1.511,1.5107,1.5177,1.5169,1.541,1.544,1.524,1.5242,1.5244,0,1.45,1.4569,1.4615,1.4656,1.4682,1.475,1.4791,1.4788,1.4831,1.4885,1.4937,1.5005,1.5059,1.5173,1.5192,1.5254,1.5243,1.5323,1.5252,1.525,1.5239,1.5234,1.5239,1.5336,1.5339,1.534,1.5342,0,1.4697,1.4696,1.4756,1.4816,1.4865,1.4913,1.4957,1.4992,1.4994,1.5043,1.5114,1.5156,1.5238,1.5304,1.5364,1.5387,1.5364,1.5364,1.5383,1.5384,1.5376,1.5377,1.5144,1.5358,1.5357,1.5355,1.5355,1.5354,1.4837,1.4895,1.4934,1.5,1.5033,1.5073,1.5129,1.5145,1.5204,1.527,1.5264,1.5341,1.538,1.5458,1.5485,1.5543,1.5516,1.5545,1.5552,1.5558,1.5563,1.5368,1.5555,1.5554,1.5554,1.5554,1.5553,0,1.5029,1.5052,1.5112,1.5173,1.5224,1.5197,1.5243,1.5287,1.5355,1.5393,1.5445,1.5524,1.5586,1.5608,1.5669,1.5711,1.5702,1.5727,1.5722,1.5727,1.5586,1.5562,1.5733,1.5733,1.5733,1.5733,1.5733,1.5733,1.5135,1.523,1.5234,1.5343,1.5365,1.544,1.5467,1.5503,1.5533,1.5621,1.5673,1.5686,1.5717,1.5778,1.5833,1.5837,1.5859,1.5888,1.5888,1.5756,1.5738,1.572,1.5697,1.5894,1.5894,1.6023,1.6024,1.6025]}]]